METEOR 2-17 DEB

Satellite information

Favourite Embed

Satellite Type and Status

DEBRISIN ORBIT

Key statistics

Satellite METEOR 2-17 DEB at a glance.

Uptime

13782

Days in orbit

Revolutions

≈ 14.0

Per day

Orbit

LEO

Low Earth Orbit

Inclination

82.5

Latest

Satellite identification and parameters

Extended collection of information and parameters for METEOR 2-17 DEB.

Object identification

Identified? True

Debris? True

Object name: METEOR 2-17 DEB

International designator: 1988-005BB

Object number (NORAD): 45521

Object ID (CCSDS): 45521

Country: COMMONWEALTH OF INDEPENDENT STATES (CIS)

Current information (Y/N): Y

RCS size: SMALL

Orbital parameters

Period: 103.115 minutes

Inclination: 82.5049 deg

SMA: 7284.099 km

Apoapsis: 917.939 km

Periapsis: 893.989 km

RAAN: 119.5121 deg

Eccentricy: 0.00164394

Argument of periapsis: 299.8869 deg

Mean anomaly: 60.0664 deg

Mean motion: 13.96493767 rev/day

Mean motion (dot): 0.00003662 rev/day2

B* drag term: 0.0026373269 1/REarth

Two-line elements (TLE)

Creation date: Oct. 20, 2025, 2:10 a.m.

Reference frame: TEME

Reference center: EARTH

Epoch: Oct. 19, 2025, 6:29 p.m. UTC

TLE line 0: 0 METEOR 2-17 DEB

TLE line 1: 1 45521U 88005BB 25292.77018267 .00003662 00000-0 26373-2 0 9996

TLE line 2: 2 45521 82.5049 119.5121 0016439 299.8869 60.0664 13.96493767604255

Live tracking on map

Real-time ground track for satellite METEOR 2-17 DEB.

In-orbit conjunctions

A list of the most updated potential collisions computed for object METEOR 2-17 DEB.

Target Orbit TCA Probability of collision Miss distance Type
SL-3 R/B LEO 2025-09-20 18:25:13 0.0001239691 454.0 (m) ROCKET BODY
FENGYUN 1C DEB SSO 2025-06-16 07:23:43 0.0001278582 249.0 (m) DEBRIS

Associated space launch

Second generation soviet meteorological satellite

METEOR 2-17 DEB was lifted into orbit during the mission ‘Tsiklon-3 | Meteor-2 17’, on board a Tsiklon-3 space rocket.

The launch took place on Jan. 30, 1988, 10:59 a.m. from 32/1.

For more information about the launch, click the button.

Launch to space Tsiklon-3 | Meteor-2 17
Tsiklon-3 | Meteor-2 17

Agency: N/A

Status: Launch Successful

Launch date: Jan. 30, 1988, 10:59 a.m. UTC

Rocket: Tsiklon-3

Launch pad: 32/1

Location: Plesetsk Cosmodrome, Russian Federation

...

Latest news about this satellite

There are no fresh news available about this satellite. Check back as we update our databases every day.


Newsletter sign-up

Weekly statistics, charts and insights to help you stay on top of the space industry.